Radiation Dose at Monitoring Post of Fukushima Daini Nuclear Power Station
Date,Time,MP-1(microSv/h),MP-2(microSv/h),MP-3(microSv/h),MP-4(microSv/h),MP-5(microSv/h),MP-6(microSv/h),MP-7(microSv/h),Wind Direction,Wind Velocity(m/s),Rain
2023/10/31,00:00,0.147,0.133,0.215,0.202,0.207,0.119,0.076,west-northwest,1.1,No
2023/10/31,00:10,0.146,0.131,0.214,0.202,0.208,0.120,0.077,west-northwest,0.9,No
2023/10/31,00:20,0.147,0.133,0.213,0.202,0.209,0.120,0.076,west-northwest,0.8,No
2023/10/31,00:30,0.146,0.134,0.215,0.201,0.208,0.120,0.077,-,CALM,No
2023/10/31,00:40,0.147,0.133,0.213,0.202,0.209,0.120,0.077,west,1.4,No
2023/10/31,00:50,0.148,0.133,0.214,0.201,0.208,0.120,0.076,west,1.1,No
2023/10/31,01:00,0.147,0.133,0.214,0.201,0.208,0.120,0.076,west-southwest,1.7,No
2023/10/31,01:10,0.146,0.132,0.215,0.201,0.209,0.120,0.076,west,2.1,No
2023/10/31,01:20,0.148,0.133,0.213,0.202,0.208,0.118,0.076,west-southwest,2.0,No
2023/10/31,01:30,0.147,0.134,0.213,0.202,0.209,0.120,0.075,west-southwest,1.9,No
2023/10/31,01:40,0.146,0.133,0.215,0.201,0.208,0.119,0.076,west,0.7,No
2023/10/31,01:50,0.147,0.134,0.213,0.203,0.208,0.119,0.075,west-northwest,1.2,No
2023/10/31,02:00,0.146,0.132,0.214,0.201,0.209,0.120,0.076,west-northwest,1.2,No
2023/10/31,02:10,0.146,0.133,0.214,0.201,0.208,0.121,0.076,west,1.2,No
2023/10/31,02:20,0.146,0.133,0.214,0.202,0.208,0.120,0.075,west-northwest,1.0,No
2023/10/31,02:30,0.147,0.133,0.214,0.201,0.207,0.120,0.076,west,0.7,No
2023/10/31,02:40,0.147,0.134,0.213,0.202,0.209,0.120,0.076,-,CALM,No
2023/10/31,02:50,0.146,0.133,0.215,0.202,0.210,0.119,0.076,-,CALM,No
2023/10/31,03:00,0.147,0.132,0.213,0.202,0.206,0.120,0.077,-,CALM,No
2023/10/31,03:10,0.146,0.133,0.213,0.202,0.209,0.120,0.076,west,0.6,No
2023/10/31,03:20,0.148,0.133,0.214,0.203,0.207,0.119,0.076,-,CALM,No
2023/10/31,03:30,0.147,0.132,0.213,0.202,0.207,0.120,0.076,-,CALM,No
2023/10/31,03:40,0.146,0.133,0.214,0.203,0.210,0.119,0.076,-,CALM,No
2023/10/31,03:50,0.147,0.133,0.214,0.203,0.208,0.121,0.076,-,CALM,No
2023/10/31,04:00,0.147,0.133,0.214,0.201,0.209,0.120,0.076,-,CALM,No
2023/10/31,04:10,0.147,0.132,0.213,0.201,0.208,0.120,0.076,-,CALM,No
2023/10/31,04:20,0.146,0.133,0.214,0.202,0.207,0.120,0.077,-,CALM,No
2023/10/31,04:30,0.146,0.131,0.214,0.201,0.209,0.119,0.076,-,CALM,No
2023/10/31,04:40,0.147,0.133,0.214,0.200,0.208,0.120,0.076,west-southwest,0.6,No
2023/10/31,04:50,0.147,0.133,0.215,0.201,0.208,0.120,0.076,-,CALM,No
2023/10/31,05:00,0.146,0.132,0.215,0.201,0.208,0.121,0.076,-,CALM,No
2023/10/31,05:10,0.147,0.133,0.214,0.202,0.207,0.121,0.076,-,CALM,No
2023/10/31,05:20,0.147,0.133,0.215,0.202,0.208,0.119,0.076,northwest,0.6,No
2023/10/31,05:30,0.147,0.133,0.214,0.202,0.206,0.120,0.077,north-northwest,0.6,No
2023/10/31,05:40,0.147,0.132,0.214,0.202,0.209,0.119,0.077,-,CALM,No
2023/10/31,05:50,0.145,0.134,0.213,0.201,0.209,0.119,0.076,-,CALM,No
2023/10/31,06:00,0.146,0.132,0.215,0.201,0.208,0.120,0.076,-,CALM,No
2023/10/31,06:10,0.147,0.132,0.215,0.201,0.208,0.120,0.077,-,CALM,No
2023/10/31,06:20,0.146,0.133,0.214,0.201,0.209,0.119,0.076,west,0.7,No
2023/10/31,06:30,0.147,0.133,0.213,0.201,0.208,0.120,0.076,west,0.6,No
2023/10/31,06:40,0.147,0.133,0.214,0.200,0.209,0.120,0.076,-,CALM,No
2023/10/31,06:50,0.147,0.133,0.214,0.202,0.209,0.121,0.076,-,CALM,No
2023/10/31,07:00,0.147,0.133,0.214,0.201,0.208,0.120,0.076,-,CALM,No
2023/10/31,07:10,0.146,0.133,0.214,0.202,0.207,0.120,0.076,-,CALM,No
2023/10/31,07:20,0.147,0.133,0.213,0.202,0.208,0.119,0.076,-,CALM,No
2023/10/31,07:30,0.147,0.133,0.214,0.200,0.209,0.121,0.076,-,CALM,No
2023/10/31,07:40,0.145,0.134,0.214,0.201,0.207,0.121,0.076,-,CALM,No
2023/10/31,07:50,0.147,0.133,0.214,0.200,0.209,0.120,0.076,north-northeast,0.6,No
2023/10/31,08:00,0.147,0.132,0.213,0.201,0.207,0.120,0.076,-,CALM,No
2023/10/31,08:10,0.147,0.133,0.214,0.200,0.209,0.120,0.076,northeast,0.6,No
2023/10/31,08:20,0.148,0.132,0.213,0.201,0.207,0.119,0.076,-,CALM,No
2023/10/31,08:30,0.146,0.132,0.213,0.200,0.209,0.120,0.076,north-northeast,0.7,No
2023/10/31,08:40,0.147,0.132,0.214,0.202,0.207,0.119,0.076,north,0.6,No
2023/10/31,08:50,0.146,0.133,0.213,0.200,0.208,0.120,0.076,north,1.3,No
2023/10/31,09:00,0.148,0.134,0.215,0.202,0.207,0.120,0.076,north-northeast,1.8,No
2023/10/31,09:10,0.147,0.133,0.214,0.200,0.208,0.120,0.076,north-northeast,2.1,No
2023/10/31,09:20,0.147,0.134,0.214,0.202,0.208,0.120,0.077,north-northeast,2.2,No
2023/10/31,09:30,0.146,0.133,0.212,0.201,0.207,0.121,0.077,north,2.2,No
2023/10/31,09:40,0.148,0.132,0.213,0.199,0.210,0.119,0.077,north-northeast,1.8,No
2023/10/31,09:50,0.147,0.133,0.214,0.203,0.207,0.119,0.076,north-northeast,2.0,No
2023/10/31,10:00,0.146,0.133,0.214,0.201,0.207,0.121,0.076,northeast,2.5,No
2023/10/31,10:10,0.146,0.133,0.213,0.201,0.208,0.120,0.077,northeast,2.1,No
2023/10/31,10:20,0.147,0.133,0.213,0.202,0.206,0.120,0.076,northeast,2.4,No
2023/10/31,10:30,0.147,0.134,0.213,0.201,0.207,0.120,0.077,northeast,2.1,No
2023/10/31,10:40,0.148,0.133,0.212,0.200,0.210,0.120,0.077,northeast,2.4,No
2023/10/31,10:50,0.146,0.133,0.215,0.203,0.208,0.120,0.077,north-northeast,2.4,No
2023/10/31,11:00,0.146,0.133,0.213,0.202,0.206,0.121,0.077,north-northeast,1.9,No
2023/10/31,11:10,0.147,0.134,0.212,0.200,0.207,0.120,0.076,northeast,2.2,No
2023/10/31,11:20,0.147,0.132,0.214,0.201,0.209,0.121,0.077,northeast,2.0,No
2023/10/31,11:30,0.145,0.134,0.213,0.202,0.208,0.120,0.076,northeast,2.5,No
2023/10/31,11:40,0.146,0.132,0.213,0.203,0.206,0.120,0.076,northeast,2.0,No
2023/10/31,11:50,0.147,0.133,0.215,0.201,0.207,0.121,0.077,northeast,2.4,No
2023/10/31,12:00,0.146,0.134,0.213,0.202,0.210,0.121,0.076,east-northeast,1.4,No
2023/10/31,12:10,0.146,0.133,0.214,0.203,0.209,0.120,0.076,east-northeast,1.4,No
2023/10/31,12:20,0.147,0.134,0.215,0.201,0.207,0.120,0.076,northeast,1.3,No
2023/10/31,12:30,0.146,0.133,0.212,0.202,0.209,0.119,0.077,east-northeast,1.7,No
2023/10/31,12:40,0.147,0.132,0.213,0.203,0.209,0.120,0.076,southeast,1.9,No
2023/10/31,12:50,0.146,0.133,0.214,0.201,0.207,0.119,0.076,east-southeast,2.0,No
2023/10/31,13:00,0.147,0.133,0.212,0.200,0.205,0.120,0.076,southeast,1.9,No
2023/10/31,13:10,0.147,0.133,0.212,0.201,0.206,0.121,0.076,southeast,1.4,No
2023/10/31,13:20,0.145,0.132,0.214,0.204,0.209,0.119,0.076,southeast,1.4,No
2023/10/31,13:30,0.145,0.133,0.213,0.202,0.209,0.121,0.076,southeast,1.7,No
2023/10/31,13:40,0.145,0.133,0.212,0.201,0.207,0.120,0.076,east-southeast,2.1,No
2023/10/31,13:50,0.147,0.132,0.214,0.200,0.206,0.120,0.076,southeast,2.0,No
2023/10/31,14:00,0.146,0.132,0.214,0.203,0.207,0.120,0.076,southeast,2.0,No
2023/10/31,14:10,0.147,0.133,0.214,0.202,0.209,0.120,0.076,southeast,2.3,No
2023/10/31,14:20,0.146,0.133,0.214,0.202,0.208,0.119,0.076,southeast,2.7,No
2023/10/31,14:30,0.148,0.132,0.214,0.203,0.210,0.121,0.076,south-southeast,2.7,No
2023/10/31,14:40,0.146,0.133,0.216,0.201,0.209,0.121,0.076,south-southeast,3.0,No
2023/10/31,14:50,0.147,0.133,0.214,0.204,0.210,0.119,0.077,south-southeast,2.9,No
2023/10/31,15:00,0.146,0.133,0.216,0.202,0.210,0.121,0.076,south-southeast,2.2,No
2023/10/31,15:10,0.147,0.133,0.214,0.203,0.208,0.120,0.076,south-southeast,3.2,No
2023/10/31,15:20,0.147,0.134,0.216,0.203,0.209,0.120,0.077,south-southeast,2.5,No
2023/10/31,15:30,0.146,0.133,0.213,0.203,0.208,0.121,0.076,south-southeast,1.9,No
2023/10/31,15:40,0.148,0.133,0.215,0.203,0.210,0.120,0.077,south-southeast,2.2,No
2023/10/31,15:50,0.146,0.134,0.213,0.202,0.209,0.120,0.076,south-southeast,2.9,No
2023/10/31,16:00,0.147,0.134,0.216,0.203,0.209,0.120,0.076,south-southeast,3.0,No
2023/10/31,16:10,0.146,0.134,0.214,0.202,0.209,0.120,0.076,south-southeast,3.1,No
2023/10/31,16:20,0.148,0.133,0.215,0.203,0.208,0.120,0.077,south-southeast,3.3,No
2023/10/31,16:30,0.147,0.133,0.213,0.203,0.208,0.118,0.076,south-southeast,3.3,No
2023/10/31,16:40,0.148,0.134,0.214,0.204,0.210,0.120,0.076,south-southeast,3.8,No
2023/10/31,16:50,0.146,0.133,0.215,0.201,0.210,0.119,0.076,south,4.4,No
2023/10/31,17:00,0.147,0.133,0.215,0.205,0.207,0.121,0.076,south,4.7,No
2023/10/31,17:10,0.146,0.133,0.215,0.203,0.210,0.120,0.076,south,4.6,No
2023/10/31,17:20,0.148,0.134,0.214,0.202,0.209,0.120,0.076,south,4.1,No
2023/10/31,17:30,0.147,0.134,0.214,0.202,0.210,0.120,0.076,south,1.1,No
2023/10/31,17:40,0.148,0.133,0.216,0.203,0.209,0.120,0.077,south,1.0,No
2023/10/31,17:50,0.147,0.134,0.214,0.203,0.208,0.119,0.076,south-southwest,3.6,No
2023/10/31,18:00,0.148,0.133,0.216,0.202,0.209,0.121,0.076,south-southwest,4.0,No
2023/10/31,18:10,0.147,0.134,0.215,0.204,0.208,0.120,0.076,south-southwest,4.3,No
2023/10/31,18:20,0.147,0.133,0.215,0.203,0.210,0.121,0.076,south-southwest,3.9,No
2023/10/31,18:30,0.148,0.134,0.214,0.203,0.208,0.121,0.076,south-southwest,3.8,No
2023/10/31,18:40,0.147,0.134,0.214,0.203,0.210,0.120,0.077,southwest,3.9,No
2023/10/31,18:50,0.149,0.133,0.215,0.203,0.208,0.121,0.076,south-southwest,3.7,No
2023/10/31,19:00,0.147,0.134,0.215,0.204,0.210,0.120,0.076,south-southwest,3.4,No
2023/10/31,19:10,0.147,0.134,0.214,0.203,0.208,0.120,0.077,south-southwest,3.4,No
2023/10/31,19:20,0.148,0.134,0.215,0.203,0.210,0.120,0.076,south-southwest,2.3,No
2023/10/31,19:30,0.147,0.134,0.215,0.204,0.208,0.120,0.077,southwest,2.4,No
2023/10/31,19:40,0.148,0.132,0.215,0.202,0.210,0.120,0.077,southwest,2.4,No
2023/10/31,19:50,0.147,0.134,0.215,0.204,0.209,0.120,0.077,southwest,2.1,No
2023/10/31,20:00,0.148,0.134,0.215,0.204,0.209,0.120,0.077,south-southwest,1.6,No
2023/10/31,20:10,0.148,0.133,0.214,0.203,0.210,0.120,0.076,south,2.9,No
2023/10/31,20:20,0.147,0.134,0.215,0.204,0.208,0.121,0.076,south,3.2,No
2023/10/31,20:30,0.147,0.133,0.214,0.203,0.208,0.121,0.076,south-southwest,2.2,No
2023/10/31,20:40,0.146,0.133,0.214,0.204,0.208,0.120,0.077,south-southwest,1.7,No
2023/10/31,20:50,0.148,0.134,0.215,0.202,0.210,0.121,0.077,south-southwest,1.8,No
2023/10/31,21:00,0.147,0.134,0.215,0.203,0.209,0.120,0.076,south,1.5,No
2023/10/31,21:10,0.148,0.133,0.215,0.204,0.208,0.121,0.076,south,1.8,No
2023/10/31,21:20,0.149,0.133,0.216,0.204,0.209,0.120,0.076,south,2.0,No
2023/10/31,21:30,0.147,0.133,0.214,0.204,0.208,0.121,0.076,south-southwest,2.1,No
2023/10/31,21:40,0.148,0.134,0.216,0.202,0.210,0.121,0.076,southwest,1.9,No
2023/10/31,21:50,0.147,0.134,0.214,0.203,0.208,0.119,0.077,south-southwest,2.7,No
2023/10/31,22:00,0.147,0.133,0.214,0.203,0.210,0.120,0.077,south-southwest,3.0,No
2023/10/31,22:10,0.147,0.135,0.215,0.204,0.208,0.120,0.077,south-southwest,3.1,No
2023/10/31,22:20,0.147,0.135,0.216,0.202,0.210,0.120,0.078,south-southwest,2.6,No
2023/10/31,22:30,0.148,0.134,0.215,0.204,0.210,0.121,0.076,south-southwest,3.6,No
2023/10/31,22:40,0.146,0.134,0.215,0.204,0.208,0.120,0.077,south-southwest,3.4,No
2023/10/31,22:50,0.148,0.133,0.215,0.203,0.210,0.121,0.077,south-southwest,3.9,No
2023/10/31,23:00,0.147,0.134,0.214,0.204,0.208,0.121,0.076,south-southwest,3.5,No
2023/10/31,23:10,0.148,0.134,0.214,0.203,0.210,0.119,0.077,southwest,3.5,No
2023/10/31,23:20,0.149,0.134,0.215,0.203,0.210,0.121,0.076,southwest,3.1,No
2023/10/31,23:30,0.147,0.134,0.214,0.203,0.208,0.121,0.077,southwest,2.3,No
2023/10/31,23:40,0.147,0.133,0.215,0.203,0.210,0.122,0.077,west-southwest,2.9,No
2023/10/31,23:50,0.148,0.134,0.216,0.204,0.208,0.121,0.077,west-southwest,2.9,No
